Location: Unspecified
(0.0000°N, 0.0000°E)
Time: 17:49:15
(UTC+00:00)

Envisat - Pass Details

Date: 23 September 2018
Orbit: 764 x 766 km, 98.1° (Epoch: 24 August)

Event Time Altitude Azimuth Distance (km) Brightness Sun altitude
Rises 19:43:09 0° 175° (S) 3,228 6.2 -27.7°
Enters shadow 19:44:10 - 176° (S) 2,822 5.9 -28.0°
Exits shadow 19:48:39 37° 195° (SSW) 1,171 4.0 -29.1°
Maximum altitude 19:50:29 60° 258° (WSW) 870 3.4 -29.5°
Drops below altitude 10° 19:55:27 10° 338° (NNW) 2,290 5.7 -30.8°
Sets 19:57:46 0° 341° (NNW) 3,213 6.4 -31.4°
